FW3814 Weather Reports


time (UTC)temp
C
wind
direction
speed
KPH
gust
KPH
rain 1hr
cm
rain 24hr
cm
rain mn
cm
humidity
%
barometer
mb
20260504231003 15 290 0.0 3.2 0.00 0.00 0.00 61 1014.0
20260504230503 15 289 1.6 3.2 0.00 0.00 0.00 61 1013.9
20260504230003 15 275 1.6 4.8 0.00 0.00 0.00 61 1014.0
20260504225524 15 275 1.6 4.8 0.00 0.00 0.00 60 1014.1
20260504225003 15 292 1.6 4.8 0.00 0.00 0.00 60 1014.1
20260504224503 15 297 3.2 6.4 0.00 0.00 0.00 60 1014.2
20260504224003 15 288 3.2 6.4 0.00 0.00 0.00 60 1014.1
20260504223503 15 273 3.2 6.4 0.00 0.00 0.00 60 1014.1
20260504223003 15 281 1.6 6.4 0.00 0.00 0.00 60 1014.2
20260504222503 15 278 1.6 4.8 0.00 0.00 0.00 60 1014.2
20260504222003 15 272 1.6 4.8 0.00 0.00 0.00 60 1014.3
20260504221503 15 276 3.2 4.8 0.00 0.00 0.00 60 1014.3
20260504221003 15 273 3.2 4.8 0.00 0.00 0.00 60 1014.3
20260504220503 15 267 3.2 3.2 0.00 0.00 0.00 60 1014.3
20260504220003 15 265 3.2 8.0 0.00 0.00 0.00 60 1014.5
20260504215503 15 271 4.8 8.0 0.00 0.00 0.00 60 1014.5
20260504215003 15 274 4.8 8.0 0.00 0.00 0.00 60 1014.4
20260504214503 15 269 1.6 6.4 0.00 0.00 0.00 60 1014.5
20260504214003 15 260 1.6 3.2 0.00 0.00 0.00 59 1014.5
20260504213503 15 269 1.6 4.8 0.00 0.00 0.00 59 1014.6
20260504213003 15 274 4.8 8.0 0.00 0.00 0.00 59 1014.5
20260504212524 15 269 6.4 8.0 0.00 0.00 0.00 59 1014.6
20260504212024 16 266 6.4 9.7 0.00 0.00 0.00 59 1014.7
20260504211503 16 264 8.0 11.3 0.00 0.00 0.00 58 1014.9
20260504211024 16 266 9.7 12.9 0.00 0.00 0.00 58 1014.9
20260504210503 16 274 9.7 12.9 0.00 0.00 0.00 58 1014.8
20260504210024 15 270 8.0 12.9 0.00 0.00 0.00 58 1014.8
20260504205503 15 269 8.0 11.3 0.00 0.00 0.00 58 1014.9
20260504205003 15 270 6.4 11.3 0.00 0.00 0.00 58 1014.9
20260504204503 15 260 3.2 8.0 0.00 0.00 0.00 57 1015.0
20260504204024 15 253 1.6 4.8 0.00 0.00 0.00 56 1015.0
20260504203503 15 253 0.0 4.8 0.00 0.00 0.00 56 1015.1
20260504203003 15 217 0.0 1.6 0.00 0.00 0.00 56 1015.0
20260504202503 15 202 0.0 1.6 0.00 0.00 0.00 56 1015.0
20260504202003 15 0 0.0 0.0 0.00 0.00 0.00 55 1014.8
20260504201503 15 0 0.0 0.0 0.00 0.00 0.00 54 1014.8
20260504201003 15 0 0.0 0.0 0.00 0.00 0.00 54 1014.8
20260504200503 16 0 0.0 0.0 0.00 0.00 0.00 53 1014.9
20260504200024 16 0 0.0 0.0 0.00 0.00 0.00 53 1014.9
20260504195524 16 0 0.0 0.0 0.00 0.00 0.00 51 1014.7
20260504195003 16 0 0.0 0.0 0.00 0.00 0.00 51 1014.8
20260504194503 17 0 0.0 0.0 0.00 0.00 0.00 51 1014.8
20260504194003 17 0 0.0 0.0 0.00 0.00 0.00 51 1014.6
20260504193503 17 0 0.0 0.0 0.00 0.00 0.00 51 1014.8
20260504193003 17 0 0.0 0.0 0.00 0.00 0.00 51 1014.8
20260504192503 17 0 0.0 0.0 0.00 0.00 0.00 51 1014.5
20260504192003 17 0 0.0 0.0 0.00 0.00 0.00 51 1014.6
20260504191503 17 0 0.0 0.0 0.00 0.00 0.00 51 1014.5
20260504191024 17 0 0.0 0.0 0.00 0.00 0.00 51 1014.4
20260504190503 17 0 0.0 0.0 0.00 0.00 0.00 50 1014.6
20260504190003 17 0 0.0 0.0 0.00 0.00 0.00 50 1014.4
20260504185503 17 0 0.0 0.0 0.00 0.00 0.00 50 1014.5
20260504185003 17 0 0.0 0.0 0.00 0.00 0.00 50 1014.5
20260504184503 17 0 0.0 0.0 0.00 0.00 0.00 45 1014.4
20260504184003 17 0 0.0 0.0 0.00 0.00 0.00 45 1014.3
20260504183503 17 0 0.0 0.0 0.00 0.00 0.00 45 1014.3
20260504183003 17 0 0.0 0.0 0.00 0.00 0.00 45 1014.4
20260504182503 17 0 0.0 0.0 0.00 0.00 0.00 44 1014.4
20260504182003 17 0 0.0 0.0 0.00 0.00 0.00 45 1014.3
20260504181503 18 270 0.0 1.6 0.00 0.00 0.00 44 1014.2
20260504181003 18 270 0.0 1.6 0.00 0.00 0.00 44 1014.3
20260504180503 18 0 0.0 0.0 0.00 0.00 0.00 43 1014.2
20260504180003 18 0 0.0 0.0 0.00 0.00 0.00 43 1014.3
20260504175503 18 270 0.0 1.6 0.00 0.00 0.00 43 1014.2
20260504175003 18 272 1.6 6.4 0.00 0.00 0.00 43 1014.3
20260504174503 18 265 1.6 6.4 0.00 0.00 0.00 42 1014.2
20260504174003 18 257 1.6 4.8 0.00 0.00 0.00 42 1014.3
20260504173503 18 264 3.2 4.8 0.00 0.00 0.00 41 1014.2
20260504173003 18 276 4.8 8.0 0.00 0.00 0.00 41 1014.3
20260504172503 18 270 4.8 8.0 0.00 0.00 0.00 41 1014.3
20260504172003 18 258 4.8 9.7 0.00 0.00 0.00 40 1014.4
20260504171503 18 261 6.4 9.7 0.00 0.00 0.00 40 1014.3
20260504171003 19 264 4.8 9.7 0.00 0.00 0.00 40 1014.3
20260504170503 19 256 4.8 8.0 0.00 0.00 0.00 40 1014.4
20260504151024 21 282 8.0 12.9 0.00 0.00 0.00 39 1014.9
20260504150503 20 305 4.8 6.4 0.00 0.00 0.00 39 1015.1
20260504141003 21 318 8.0 14.5 0.00 0.00 0.00 39 1015.3
20260504140503 21 296 8.0 9.7 0.00 0.00 0.00 38 1015.5
20260504130503 20 300 4.8 8.0 0.00 0.00 0.00 40 1015.9
20260504110504 18 32 8.0 12.9 0.00 0.00 0.00 41 1016.7
20260504100504 18 271 6.4 11.3 0.00 0.00 0.00 38 1017.0
20260504081504 17 0 0.0 0.0 0.00 0.00 0.00 43 1016.6
20260504081025 17 0 0.0 0.0 0.00 0.00 0.00 44 1016.6
20260504080504 17 0 0.0 0.0 0.00 0.00 0.00 45 1016.8
20260504050504 12 0 0.0 0.0 0.00 0.00 0.00 53 1015.3
20260504050004 12 0 0.0 0.0 0.00 0.00 0.00 53 1015.5
20260504045504 12 0 0.0 0.0 0.00 0.00 0.00 52 1015.3
20260504045004 12 0 0.0 0.0 0.00 0.00 0.00 52 1015.0
20260504044504 12 0 0.0 0.0 0.00 0.00 0.00 53 1015.2
20260504044004 12 0 0.0 0.0 0.00 0.00 0.00 53 1015.0
20260504043504 12 0 0.0 0.0 0.00 0.00 0.00 52 1015.0
20260504043004 12 0 0.0 0.0 0.00 0.00 0.00 51 1015.2
20260504042504 12 0 0.0 0.0 0.00 0.00 0.00 50 1015.2
20260504042004 12 0 0.0 0.0 0.00 0.00 0.00 50 1015.2
20260504041525 12 0 0.0 0.0 0.00 0.00 0.00 48 1015.3
20260504041004 13 0 0.0 0.0 0.00 0.00 0.00 48 1015.1
20260504040504 13 0 0.0 0.0 0.00 0.00 0.00 46 1015.2
20260504040004 13 0 0.0 0.0 0.00 0.00 0.00 46 1015.0
20260504035525 13 0 0.0 0.0 0.00 0.00 0.00 45 1015.1
20260504035004 13 0 0.0 0.0 0.00 0.00 0.00 44 1015.0
20260504034504 13 0 0.0 0.0 0.00 0.00 0.00 44 1015.1
20260504034004 13 0 0.0 0.0 0.00 0.00 0.00 44 1015.2
20260504033525 13 0 0.0 0.0 0.00 0.00 0.00 44 1015.0
20260504033004 14 0 0.0 0.0 0.00 0.00 0.00 44 1014.9
20260504032504 14 0 0.0 0.0 0.00 0.00 0.00 45 1015.2
20260504032025 14 0 0.0 0.0 0.00 0.00 0.00 44 1015.0
20260504031504 14 0 0.0 0.0 0.00 0.00 0.00 44 1015.1
20260504031025 14 17 0.0 3.2 0.00 0.00 0.00 44 1015.1
20260504030504 14 11 1.6 3.2 0.00 0.00 0.00 43 1015.1
20260504030004 14 360 0.0 3.2 0.00 0.00 0.00 42 1015.2
20260504025504 14 0 0.0 0.0 0.00 0.00 0.00 42 1015.1
20260504025004 14 0 0.0 0.0 0.00 0.00 0.00 42 1015.3
20260504024504 14 0 0.0 0.0 0.00 0.00 0.00 42 1015.2
20260504024025 14 0 0.0 0.0 0.00 0.00 0.00 42 1015.1
20260504023525 14 0 0.0 0.0 0.00 0.00 0.00 42 1015.5
20260504023004 14 0 0.0 0.0 0.00 0.00 0.00 42 1015.6
20260504022504 14 0 0.0 0.0 0.00 0.00 0.00 42 1015.5
20260504022004 14 357 0.0 3.2 0.00 0.00 0.00 42 1015.3
20260504021504 14 357 0.0 3.2 0.00 0.00 0.00 43 1015.3
20260504021004 14 0 0.0 0.0 0.00 0.00 0.00 43 1015.3
20260504020504 15 0 0.0 0.0 0.00 0.00 0.00 40 1015.5
20260504020004 15 0 0.0 0.0 0.00 0.00 0.00 40 1015.2
20260504015525 15 0 0.0 0.0 0.00 0.00 0.00 40 1015.3
20260504015004 15 0 0.0 0.0 0.00 0.00 0.00 40 1015.5
20260504014504 15 0 0.0 0.0 0.00 0.00 0.00 40 1015.6
20260504014004 15 0 0.0 0.0 0.00 0.00 0.00 40 1015.3
20260504013504 15 0 0.0 0.0 0.00 0.00 0.00 40 1015.5
20260504013004 15 0 0.0 0.0 0.00 0.00 0.00 40 1015.2
20260504012525 15 0 0.0 0.0 0.00 0.00 0.00 40 1015.3
20260504012025 15 0 0.0 0.0 0.00 0.00 0.00 41 1015.2
20260504011504 15 0 0.0 0.0 0.00 0.00 0.00 41 1015.5
20260504011004 15 0 0.0 0.0 0.00 0.00 0.00 41 1015.3
20260504010504 15 0 0.0 0.0 0.00 0.00 0.00 41 1015.3
20260504010025 15 0 0.0 0.0 0.00 0.00 0.00 41 1015.3
20260504005504 16 0 0.0 0.0 0.00 0.00 0.00 41 1015.2
20260504005004 16 325 0.0 3.2 0.00 0.00 0.00 41 1015.5
20260504004504 16 325 0.0 3.2 0.00 0.00 0.00 41 1015.6
20260504004025 16 360 0.0 1.6 0.00 0.00 0.00 42 1015.6
20260504003504 16 0 0.0 0.0 0.00 0.00 0.00 42 1015.7
20260504003004 16 0 0.0 0.0 0.00 0.00 0.00 43 1015.7
20260504002504 16 0 0.0 0.0 0.00 0.00 0.00 44 1015.7
20260504002004 16 0 0.0 0.0 0.00 0.00 0.00 44 1015.9
20260504001504 16 0 0.0 0.0 0.00 0.00 0.00 45 1016.0
20260504001004 16 0 0.0 0.0 0.00 0.00 0.00 45 1016.0
20260504000504 15 0 0.0 0.0 0.00 0.00 0.00 46 1016.3
20260504000004 15 0 0.0 0.0 0.00 0.00 0.00 47 1016.0
20260503235525 15 270 0.0 1.6 0.00 0.00 0.00 48 1016.0
20260503235004 15 315 0.0 1.6 0.00 0.00 0.00 49 1016.0
20260503234504 15 333 0.0 1.6 0.00 0.00 0.00 49 1016.1
20260503234004 15 315 0.0 1.6 0.00 0.00 0.00 50 1016.3
20260503233504 15 0 0.0 0.0 0.00 0.00 0.00 50 1016.0
20260503233004 15 0 0.0 0.0 0.00 0.00 0.00 51 1016.3
20260503232504 15 0 0.0 0.0 0.00 0.00 0.00 51 1016.2
20260503232004 15 0 0.0 0.0 0.00 0.00 0.00 51 1016.2
20260503231525 15 0 0.0 0.0 0.00 0.00 0.00 52 1016.3